Location: Aalen
(48.8330°N, 10.1000°E)
Time: 16:54:58
(UTC+02:00)

Transit 4A - Pass Details

Date: 09 August 2021
Orbit: 871 x 974 km, 66.8° (Epoch: 16 September)

Event Time Altitude Azimuth Distance (km) Brightness Sun altitude
Rises 07:10:39 0° 325° (NW) 3,475 10.7 9.5°
Reaches altitude 10° 07:13:12 10° 330° (NNW) 2,540 10.1 9.9°
Maximum altitude 07:18:57 54° 48° (NE) 1,074 9.0 10.8°
Drops below altitude 10° 07:24:47 10° 125° (SE) 2,580 11.0 11.8°
Sets 07:27:23 0° 130° (SE) 3,533 11.6 12.2°
